Regional Weather Roundup
Issued by NWS

Home | Current Version | Previous Version | Text Only | Print | Product List | Glossary On
Versions: 1 2 3 4 5 6 7 8 9 10 11 12 13 14 15 16 17 18 19 20 21 22 23 24 25 26 27 28 29 30 31 32 33 34 35 36 37 38 39 40 41 42 43 44 45 46 47 48 49 50
000
ASUS46 KSEW 050710
RWRWA

WASHINGTON REGIONAL WEATHER ROUNDUP
NATIONAL WEATHER SERVICE SEATTLE WA
1200 AM PDT SUN JUL 05 2015

NOTE:"FAIR" INDICATES FEW OR NO CLOUDS BELOW 12,000 FEET WITH NO
SIGNIFICANT WEATHER AND/OR OBSTRUCTIONS TO VISIBILITY.

WAZ505-507>509-050800-
SEATTLE, TACOMA, EVERETT, AND VICINITY

CITY           SKY/WX    TMP DP  RH WIND       PRES   REMARKS
EVERETT        CLEAR     68  50  52 VRB3      29.81S
BOEING FIELD   CLEAR     76  48  37 CALM      29.78R
RENTON         CLEAR     71  48  43 CALM      29.77S
SEATAC AIRPORT CLEAR     75  46  35 CALM      29.80R
JBLM-MCCHORD   CLEAR     67  50  55 CALM      29.79R
PUYALLUP       CLOUDY    64  46  52 CALM      29.80S
BREMERTON      CLEAR     63  46  55 CALM      29.82S
JBLM-FT LEWIS  CLEAR     74  47  37 W3        29.78S
TACOMA NARROWS CLEAR     72  44  36 CALM      29.79R
$$

WAZ001-503-506-510-514-515-050800-
NORTH INTERIOR

CITY           SKY/WX    TMP DP  RH WIND       PRES   REMARKS
BELLINGHAM     CLEAR     61  51  70 CALM      29.79S
FRIDAY HARBOR  CLEAR     54  50  86 CALM      29.81S
EASTSOUND      CLEAR     63  54  72 CALM      29.78S
PORT ANGELES   CLEAR     60  54  80 CALM      29.80S
PORT TOWNSEND  FAIR      55  54  94 CALM      29.79F
NAS WHIDBEY    PTCLDY    61  52  72 CALM      29.83S
ARLINGTON      CLEAR     64  48  55 CALM      29.80S
BURLINGTON     CLEAR     59  52  77 CALM      29.79F
$$

WAZ020-022-039-040-504-511-512-050800-
SOUTHWEST INTERIOR

CITY           SKY/WX    TMP DP  RH WIND       PRES   REMARKS
SHELTON        CLEAR     68  55  63 W7        29.78R
OLYMPIA        CLEAR     65  54  67 S6        29.79R
CHEHALIS       FAIR      66  63  88 CALM      29.79S
KELSO          CLEAR     68  54  60 NW5       29.83S
VANCOUVER      CLEAR     78  55  44 CALM      29.75F
SCAPPOOSE, OR  CLEAR     71  57  61 CALM      29.75S
PORTLAND, OR   PTCLDY    76  59  55 NW6       29.76S
$$

WAZ021-516-517-050800-
WASHINGTON COAST

CITY           SKY/WX    TMP DP  RH WIND       PRES   REMARKS
FORKS          CLEAR     55  54  96 CALM      29.79F FOG
HOQUIAM        PTCLDY    59  57  93 SW6       29.82S FOG
ASTORIA, OR    CLOUDY    60  58  92 W6        29.82S FOG
$$

WAZ019-023-024-040-518-519-050800-
CASCADE MOUNTAINS AND COLUMBIA GORGE

CITY           SKY/WX    TMP DP  RH WIND       PRES   REMARKS
TROUTDALE, OR  PTCLDY    78  57  48 W5        29.74S
THE DALLES, OR CLEAR     87  48  25 W13G22    29.68S
$$

WAZ026-027-041>044-520-521-050800-
EAST SLOPES

CITY           SKY/WX    TMP DP  RH WIND       PRES   REMARKS
OMAK           CLEAR     79  31  17 N13       29.81R
WENATCHEE      CLEAR     87  30  13 N8G17     29.75R
ELLENSBURG     CLEAR     77  37  23 NW15      29.77R
YAKIMA         CLEAR     83  41  22 NW5       29.73R
$$

WAZ028-034-035-050800-
COLUMBIA BASIN

CITY           SKY/WX    TMP DP  RH WIND       PRES   REMARKS
EPHRATA        NOT AVBL
MOSES LAKE     CLEAR     83  40  21 N17       29.70R
PASCO          PTCLDY    84  35  17 CALM      29.63R
HERMISTON, OR  CLEAR     85  49  28 SW15      29.65S
$$

WAZ036>038-050800-
NORTHEAST WASHINGTON

CITY           SKY/WX    TMP DP  RH WIND       PRES   REMARKS
SPOKANE GEIGER PTCLDY    81  35  19 N10       29.77R
SPOKANE FELTS  CLEAR     83  38  20 N9G22     29.73R
FAIRCHILD AFB  CLEAR     79  35  19 N12       29.77R
COEURDALENE,ID CLEAR     75  45  33 E6        29.73S
DEER PARK      PTCLDY    63  42  46 NW5       29.77R
$$

WAZ029>033-050800-
SOUTHEAST WASHINGTON

CITY           SKY/WX    TMP DP  RH WIND       PRES   REMARKS
PULLMAN        PTCLDY    63  47  55 CALM      29.78S
LEWISTON, ID   MOCLDY    85  42  22 CALM      29.68S
WALLA WALLA    PTCLDY    83  44  25 S9        29.70R
PENDLETON, OR  PTCLDY    82  45  27 SW7       29.72R
$$


USA.gov is the U.S. government's official web portal to all federal, state and local government web resources and services.